Find Starlink 35728

NORAD ID: 66544 Int'l Des: 2025-265 Owner: SPXS Country: US Constellation: starlink operational
LEOCIRCULAR

リアルタイム位置

3D地球を読み込み中...

Starlink 35728について

説明を読み込み中...

次回通過

Passes for default location (London). Set your location on the main map for personalized predictions.

高度履歴

Loading altitude history...

軌道要素

1 66544U 25265AE 26105.35669098 .00010667 00000-0 39652-3 0 9993
2 66544 43.0038 70.6376 0001276 261.9340 98.1367 15.27586506 22727
Epoch: Apr 15, 2026 • Age: 17 hours

現在のステータス

高度 482.9 km
速度 7.63 km/s
衛星直下点 -0.83°S, 165.8°W
打ち上げ日 Nov 19, 2025
運用期間 0.4 years
タイプ internet

技術仕様

分類 Payload
質量 575.00 kg
乾燥質量 530.00 kg
総質量 575.00 kg
長さ 0.30 m
直径 4.10 m
スパン 29.00 m
形状 Box + pan
製造者 SPXS
バスタイプ Starlink V2MO
フェーズステータス In Orbit
所有者/国 SPXS/US

Most Searched